Weather observations for the past three days for
Miller Air Park
Imperial (Metric)
Date Time (edt) Wind (mph) Vis. (mi.) Weather Sky Cond. Temperature (ºF) Relative Humidity Wind Chill (°F) Heat Index (°F) Pressure Precipitation (in)
Air Dwpt 6 hour altimeter (in) sea level (mb) 1 hr 3 hr 6 hr
Max. Min.
21 09:56 Calm 10.00 Fair CLR 82 68 63% 85 30.05 1017.7
21 08:56 W 6 10.00 Fair CLR 79 68 69% 81 30.05 1018.0
21 07:56 Calm 10.00 Fair CLR 73.9 68 73.9 62.1 82% 30.05 1017.9
21 06:56 Calm 9.00 Fair CLR 66 64 93% 30.04 1017.7
21 05:56 Calm 10.00 Fair CLR 62.1 61 96% 30.03 1017.2
21 04:56 Calm 10.00 Fair CLR 64.9 64 97% 30.02 1016.9
21 03:56 Calm 10.00 Fair CLR 64.9 64 97% 30.02 1016.7
21 02:56 Calm 10.00 Fair CLR 66.9 66 97% 30.04 1017.4
21 01:56 Calm 10.00 Fair CLR 68 66.9 73.9 68 96% 30.04 1017.5
21 00:56 Calm 10.00 Fair CLR 71.1 68 90% 30.05 1017.7
20 23:56 Calm 10.00 Fair CLR 71.1 69.1 94% 30.05 1017.8
20 22:56 S 3 10.00 Fair CLR 71.1 69.1 94% 30.07 1018.5
20 21:56 Calm 10.00 A Few Clouds FEW110 72 70 94% 30.09 1019.0
20 20:56 Calm 10.00 Fair CLR 73 69.1 87% 30.08 1018.9
20 19:56 Calm 10.00 Light Rain FEW055 BKN075 BKN090 73.9 70 84 73.9 88% 30.07 1018.6
20 18:56 S 5 10.00 Light Rain FEW050 77 66.9 71% 79 30.07 1018.7
20 17:56 S 6 10.00 Fair CLR 79 64.9 62% 81 30.07 1018.6
20 16:56 S 9 10.00 Fair CLR 81 64 57% 83 30.09 1019.1
20 15:56 S 9 10.00 Fair CLR 82 64.9 56% 84 30.09 1019.3
20 14:56 S 14 G 18 10.00 Partly Cloudy SCT100 82.9 66.9 59% 86 30.1 1019.6
20 13:56 S 10 10.00 Partly Cloudy SCT110 84 64 87.1 69.1 51% 85 30.11 1019.9
20 12:56 S 10 10.00 Mostly Cloudy SCT040 BKN110 84.9 66.9 55% 88 30.11 1020.0
20 11:56 SW 9 10.00 Fair CLR 84.9 64 50% 86 30.13 1020.4
20 10:56 S 7 10.00 A Few Clouds FEW110 84 64 51% 85 30.13 1020.5
20 09:56 Vrbl 6 10.00 Fair CLR 81 68 65% 84 30.14 1020.8
20 08:56 SE 6 10.00 Fair CLR 75.9 68 77% 77 30.15 1021.2
20 07:56 Calm 10.00 Fair CLR 69.1 64.9 69.1 60.1 87% 30.14 1021.0
20 06:56 Calm 10.00 Fair CLR 64 61 90% 30.14 1020.8
20 05:56 Calm 10.00 Fair CLR 60.1 57.9 93% 30.13 1020.8
20 04:56 Calm 10.00 Fair CLR 60.1 57.9 93% 30.14 1020.9
20 03:56 Calm 10.00 Fair CLR 60.1 57.9 93% 30.13 1020.6
20 02:56 Calm 10.00 Fair CLR 60.1 57.9 93% 30.13 1020.5
20 01:56 Calm 10.00 Fair CLR 61 57.9 75 61 90% 30.14 1020.9
20 00:56 Calm 10.00 Fair CLR 62.1 59 90% 30.15 1021.4
19 23:56 Calm 10.00 Fair CLR 64 60.1 87% 30.15 1021.4
19 22:56 Calm 10.00 Fair CLR 64.9 61 87% 30.15 1021.3
19 21:56 Calm 10.00 Fair CLR 66 61 84% 30.15 1021.3
19 20:56 SE 3 10.00 Fair CLR 70 62.1 76% 30.14 1020.9
19 19:56 SE 3 10.00 Fair CLR 75 62.1 84.9 75 64% 77 30.12 1020.2
19 18:56 S 9 10.00 Fair CLR 78.1 62.1 58% 80 30.11 1019.9
19 17:56 SE 8 10.00 Fair CLR 79 61 54% 80 30.1 1019.5
19 16:56 SE 9 10.00 Fair CLR 81 62.1 53% 82 30.1 1019.7
19 15:56 SE 10 10.00 Partly Cloudy SCT070 81 61 51% 82 30.11 1019.9
19 14:56 E 8 10.00 Mostly Cloudy BKN070 81 61 51% 82 30.12 1020.2
19 13:56 NW 10 10.00 Fair CLR 84 55.9 84.9 69.1 38% 83 30.12 1020.1
19 12:56 NW 8 10.00 Fair CLR 82.9 57 41% 82 30.13 1020.5
19 11:56 N 7 10.00 Fair CLR 81 55.9 42% 81 30.13 1020.5
19 10:56 NW 3 10.00 Fair CLR 78.1 57 48% 79 30.14 1020.7
19 09:56 N 6 10.00 Fair CLR 75.9 57.9 54% 78 30.13 1020.6
19 08:56 N 6 10.00 Fair CLR 73 59 62% 30.13 1020.6
19 07:56 N 6 10.00 A Few Clouds FEW070 69.1 57.9 69.1 59 68% 30.12 1020.3
19 06:56 N 6 10.00 Fair CLR 64.9 57 76% 30.1 1019.5
19 05:56 Calm 10.00 Fair CLR 59 57 93% 30.07 1018.6
19 04:56 Calm 10.00 Fair CLR 61 59 93% 30.06 1018.1
19 03:56 Calm 10.00 Fair CLR 62.1 60.1 93% 30.04 1017.6
19 02:56 N 6 10.00 Fair CLR 66.9 59 76% 30.03 1017.0
19 01:56 N 6 10.00 Fair CLR 68 62.1 79 68 81% 30.02 1016.8
19 00:56 NW 3 10.00 Fair CLR 68 66 93% 30.01 1016.5
18 23:56 Calm 10.00 Fair CLR 70 66.9 90% 30 1016.3
18 22:56 Calm 10.00 Fair CLR 70 66.9 90% 30 1016.2
18 21:56 Calm 10.00 Fair CLR 73 68 84% 30 1016.1
18 20:56 Calm 10.00 Fair CLR 75.9 68 77% 77 29.98 1015.3
18 19:56 S 3 10.00 Fair CLR 79 64.9 88 79 62% 81 29.96 1014.7
18 18:56 S 5 10.00 Fair CLR 81 64.9 58% 83 29.93 1013.9
18 17:56 SE 6 10.00 Fair CLR 81 66 61% 83 29.92 1013.4
18 16:56 SE 6 10.00 Fair CLR 84 66.9 57% 87 29.92 1013.5
18 15:56 SE 10 10.00 Overcast FEW044 OVC055 82.9 68 61% 86 29.93 1013.9
18 14:56 E 6 10.00 Mostly Cloudy SCT039 BKN048 BKN090 84 69.1 61% 88 29.93 1013.7
18 13:56 Vrbl 3 10.00 Partly Cloudy SCT044 86 66 88 75 51% 88 29.93 1013.6
18 12:56 Calm 10.00 Fair CLR 84.9 68 57% 88 29.92 1013.4
18 11:56 Vrbl 5 10.00 Mostly Cloudy BKN120 82.9 69.1 63% 87 29.93 1013.8
18 10:56 N 6 10.00 Mostly Cloudy BKN110 77 70 79% 79 29.93 1013.7
Date Time (edt) Wind (mph) Vis. (mi.) Weather Sky Cond. Air Dwpt Max. Min. Relative Humidity Wind Chill (°F) Heat Index (°F) altimeter (in) sea level (mb) 1 hr 3 hr 6 hr
6 hour
Temperature (ºF) Pressure Precipitation (in)